SCP
0 0 0 0 0 -0 0 0 -0 0 0 0 0 -0 -0 0 0 0 -0 -0 -0 0 0 0 0 0 0 0 0 0 0 0 0 0 0 0 0 0 0 0 0 0 0 0 0 0 0 0 0
0 0 0 0 0 0 0 0 0 -0 0 -0 0 0 0 0 0 0 0 -0 -0 0 0 0 0 0 0 0 0 0 0 0 0 0 0 0 0 0 0 0 0 0 0 0 0 0 0 0 0
0 0 0 0 0 0 0 0 0 0 -0 -0 0 0 0 0 0 0 -0 0 0 0 0 0 0 0 0 0 0 0 0 0 0 0 0 0 0 0 0 0 0 0 0 0 0 0 0 0 0
0 0 0 0 0 0 0 0 0 0 0 -0 0 0 0 0 0 0 0 0 0 0 0 0 0 1 0 0 0 0 0 0 0 0 0 0 0 0 0 0 0 0 0 0 0 0 0 0 0
0 0 0 0 0 0 0 -0 0 0 -0 -0 0 0 0 0 0 0 0 0 0 0 0 0 0 1 1 1 1 1 0 0 0 0 0 0 0 0 0 0 0 0 0 0 0 0 0 0 0
0 0 0 0 0 0 0 0 0 0 0 -0 0 0 0 0 0 0 0 0 0 0 0 0 0 1 1 1 1 1 0 0 0 0 0 0 0 0 0 0 0 0 0 0 0 0 0 0 0
0 0 0 0 0 0 0 0 0 0 0 0 0 0 0 0 -0 0 0 0 0 0 0 0 1 1 1 1 1 1 1 0 0 0 0 0 0 0 0 0 0 0 0 0 0 0 0 0 0
0 0 0 0 0 0 0 0 0 0 0 0 -0 -0 0 -0 -0 0 0 0 0 0 0 0 0 1 1 1 1 1 1 1 0 1 1 1 1 1 1 0 0 0 0 0 0 0 0 0 0
0 0 0 0 0 0 0 0 -0 -0 0 -0 0 0 -0 0 0 0 0 0 0 0 0 0 0 0 1 1 1 1 0 1 1 1 1 1 1 1 1 1 0 0 0 0 0 0 0 0 0
0 0 0 0 0 0 0 0 0 -0 -0 -0 -0 -0 0 0 0 0 0 0 0 0 0 0 0 0 0 1 0 1 1 1 1 1 1 1 1 1 1 0 0 0 0 0 0 0 0 0 0
0 0 0 0 0 0 0 0 0 0 0 0 -0 -0 0 0 0 0 0 0 0 0 0 1 1 1 0 0 0 1 1 1 1 1 1 1 1 1 1 1 1 1 0 1 1 1 0 0 0
0 0 0 0 0 0 0 0 0 0 0 0 0 0 0 0 0 0 0 0 0 0 0 1 1 1 0 0 0 0 1 1 1 1 1 1 1 0 0 0 0 0 1 1 1 1 0 0 0
0 0 0 0 0 0 0 0 0 0 0 0 0 0 0 0 0 0 0 0 0 0 0 0 1 1 1 0 0 0 1 0 1 1 1 1 1 0 0 0 0 0 0 0 0 0 0 0 0
0 0 0 0 0 0 0 0 0 0 0 0 0 0 0 0 0 0 0 0 0 0 0 0 1 1 1 1 0 0 1 1 1 1 1 1 1 0 0 0 0 0 0 0 0 0 0 0 0
0 0 0 0 0 0 0 0 0 0 0 0 0 0 0 0 0 0 0 0 0 0 0 0 0 1 1 1 0 1 1 1 1 1 1 1 0 0 0 0 0 0 0 0 0 0 0 0 0
0 0 0 0 0 0 0 0 0 0 0 0 0 0 0 0 0 0 0 0 0 0 0 0 0 1 1 1 1 1 1 2 1 1 1 0 0 0 0 0 0 0 0 0 0 0 0 0 0
0 0 0 0 0 0 0 0 0 0 0 0 0 0 0 0 0 0 0 0 0 0 0 0 0 1 1 1 1 1 2 2 1 1 1 0 0 0 0 0 0 0 0 0 0 0 0 0 0
0 0 0 0 0 0 0 0 0 0 0 0 0 0 0 0 0 0 0 0 0 0 0 0 0 0 1 1 1 1 1 1 1 1 1 1 1 0 0 0 0 0 0 0 0 0 0 0 0
0 0 0 0 0 0 0 0 0 0 0 0 0 0 0 0 0 0 0 0 0 0 0 0 0 0 1 1 1 1 1 1 1 1 1 1 1 0 0 0 0 0 0 0 0 0 0 0 0
0 0 0 0 0 0 0 0 0 0 0 0 0 0 0 0 -0 0 0 0 0 0 0 0 0 0 1 1 2 1 1 0 0 1 1 1 1 0 0 0 0 0 0 0 0 0 0 0 0
0 0 0 0 0 0 0 0 0 0 0 0 0 0 0 0 0 0 0 0 0 0 0 0 0 1 1 1 0 0 0 0 0 0 1 0 0 0 0 0 0 0 0 0 0 0 0 0 0
0 0 0 0 0 0 0 -0 -0 -0 -0 0 0 0 0 0 0 0 0 -0 -0 0 0 0 1 1 1 1 0 0 0 0 0 0 0 0 0 0 0 0 0 0 0 0 0 0 0 0 0
0 0 0 0 0 0 0 0 -0 -0 0 0 0 0 0 0 0 0 -0 -0 0 0 0 1 1 1 0 0 0 0 0 0 0 0 0 0 0 0 0 0 0 0 0 0 0 0 0 0 0
0 0 0 0 0 0 0 0 -0 -0 0 0 0 0 0 0 0 0 0 0 0 0 1 1 1 0 0 0 0 0 0 0 0 0 0 0 0 0 0 0 0 0 0 0 0 0 0 0 0
0 0 0 0 0 0 0 0 0 0 0 0 0 0 0 0 0 0 0 0 0 1 1 0 0 0 0 0 0 0 0 0 0 0 0 0 0 0 0 0 0 0 0 0 0 0 0 0 0
0 0 0 0 0 0 0 0 -0 -0 -0 -0 0 0 0 0 0 0 0 0 0 0 0 0 0 0 0 0 0 0 0 0 0 0 0 0 0 0 0 0 0 0 0 0 0 0 0 0 0
0 0 0 0 0 0 0 -0 -0 0 -0 0 0 0 0 0 0 0 0 0 0 0 0 0 0 0 0 0 0 0 0 0 0 0 0 0 0 0 0 0 0 0 0 0 0 0 0 0 0
0 0 0 0 0 0 0 -0 -0 -0 0 0 0 0 0 0 0 0 0 -0 0 -0 -0 -0 0 0 0 0 0 0 0 0 0 0 0 0 0 0 0 0 0 0 0 0 0 0 0 0 0
0 0 0 0 0 0 0 -0 -0 -0 0 0 0 0 0 0 0 0 0 -0 -0 0 0 0 0 0 0 0 0 0 0 0 0 0 0 0 0 0 -0 0 0 0 0 0 0 0 0 0 0
0 0 0 0 0 0 -0 -0 -0 0 0 0 0 0 0 0 0 0 -0 -0 -0 0 0 0 0 -0 0 0 0 0 0 0 0 0 -0 -0 0 -0 -0 0 0 0 0 0 0 0 0 0 0
Wind_Speed_500mb
13 8 12 10 6 8 8 12 8 9 2 6 9 10 25 28 12 9 41 45 39 44 52 49 41 36 30 29 27 22 20 19 18 16 15 13 10 6 5 4 2 2 4 6 7 9 10 10 11
12 13 14 5 8 4 11 10 15 7 16 7 20 12 7 5 14 22 47 43 42 44 47 46 41 37 34 31 30 26 24 23 21 19 16 12 8 5 2 1 1 1 3 5 8 9 9 11 13
15 19 10 8 8 10 10 11 5 8 30 16 12 12 12 12 21 48 46 41 37 37 31 37 41 40 39 36 35 31 29 28 26 23 19 14 9 5 1 4 6 6 5 6 8 10 12 13 14
16 9 2 6 14 11 12 3 10 8 24 19 9 11 11 22 38 32 44 34 30 30 28 39 44 46 43 39 39 37 36 34 31 28 24 18 13 9 4 4 8 10 9 8 9 12 13 17 17
25 4 3 7 11 8 13 27 37 15 7 23 12 9 7 21 32 30 25 21 21 28 33 39 47 47 44 43 44 43 43 41 37 34 30 25 21 16 10 6 7 12 14 13 13 14 15 20 25
10 7 0 12 10 7 6 27 31 17 25 20 9 5 8 34 31 24 27 20 23 23 27 32 41 45 49 51 51 49 48 47 44 42 39 34 29 23 17 11 8 12 15 16 17 18 21 24 28
9 7 9 7 6 9 5 13 8 9 17 8 7 11 4 35 34 27 26 25 26 30 37 37 39 40 51 58 57 55 55 53 51 49 47 42 37 31 24 18 13 13 15 15 16 18 22 26 28
13 6 4 9 8 10 10 10 11 9 9 36 16 8 8 38 35 34 34 27 38 45 47 47 45 47 56 63 64 61 60 59 57 56 54 50 44 38 32 25 18 16 15 15 14 11 17 24 26
15 4 9 12 15 8 17 14 28 26 36 39 7 12 22 10 41 38 41 39 46 53 57 57 58 57 62 64 69 67 64 65 62 61 60 57 55 48 40 31 23 19 17 17 13 12 15 17 17
12 11 20 14 15 4 20 20 49 22 42 38 38 30 8 13 31 40 51 49 54 59 57 62 65 67 71 70 72 75 70 72 71 70 70 68 65 54 46 36 29 23 20 22 20 18 18 15 15
14 20 30 28 37 27 25 16 48 37 36 50 31 47 40 44 34 32 40 49 59 55 55 53 57 67 73 75 76 80 78 81 79 76 77 76 71 62 56 46 35 29 25 29 24 23 24 20 18
12 27 40 34 30 17 23 24 31 51 61 73 75 66 57 64 63 53 49 45 40 59 59 55 47 54 65 78 82 84 82 84 87 83 82 82 79 70 63 52 40 36 32 33 29 26 26 26 23
29 18 27 42 48 41 42 46 46 57 61 67 76 77 74 68 61 45 52 58 60 50 54 61 60 60 62 71 76 74 82 77 75 89 84 83 84 77 66 56 48 42 38 39 32 30 29 31 29
3 22 38 46 51 40 29 44 49 55 74 68 64 65 69 63 69 73 70 71 70 78 75 68 70 67 68 67 63 57 66 73 74 89 86 80 83 76 65 59 53 45 43 39 34 33 33 33 35
27 16 21 28 12 15 17 43 51 62 77 77 66 65 77 76 67 71 78 91 94 82 81 73 67 58 67 74 54 51 54 70 77 81 86 73 73 68 63 62 52 45 41 40 38 37 37 38 39
6 8 29 34 26 17 19 63 18 27 53 71 72 73 71 82 87 89 89 93 85 85 85 68 67 70 60 63 56 51 56 64 71 80 79 61 51 46 56 53 47 39 36 41 42 41 39 41 43
9 24 30 22 11 14 25 73 26 60 55 60 60 73 82 87 86 91 95 103 97 82 77 81 78 67 60 60 54 56 64 64 72 70 65 51 43 45 53 47 41 33 35 39 41 39 41 44 46
21 28 5 8 6 17 23 59 36 39 36 49 53 62 71 87 93 106 97 88 83 78 73 77 60 58 62 58 57 64 70 66 66 62 50 42 42 44 48 34 34 36 33 34 36 40 41 43 43
12 12 4 8 14 24 34 55 47 42 54 58 71 80 88 88 95 91 102 93 88 89 82 62 52 59 67 57 63 70 68 62 58 49 42 38 36 38 33 28 38 36 29 27 31 37 43 46 40
24 21 16 12 22 10 20 35 34 27 33 50 54 58 68 69 94 75 70 74 78 59 56 55 61 59 68 59 60 65 64 58 46 43 41 41 41 30 34 30 33 31 30 33 35 39 45 45 37
14 16 18 16 18 36 24 35 30 24 30 53 59 71 69 71 76 84 77 68 73 68 54 58 54 48 57 60 63 60 45 38 41 42 42 46 33 20 22 24 26 28 36 35 37 40 39 37 31
31 7 17 8 10 18 0 32 41 35 47 40 38 65 68 83 88 83 74 75 74 68 63 56 50 46 56 56 51 52 50 50 48 39 29 27 21 21 23 23 28 33 37 36 38 30 29 27 27
14 24 22 20 16 8 9 9 48 9 34 39 40 61 83 92 93 95 91 77 61 47 51 52 47 46 45 40 37 40 42 44 37 34 28 24 23 27 31 32 33 32 34 36 29 25 22 21 24
11 8 16 18 4 11 22 18 49 18 32 24 21 44 56 58 51 50 55 56 54 42 56 49 46 37 33 30 28 31 37 42 40 34 29 29 29 32 30 33 33 35 30 22 19 18 18 20 23
9 7 2 3 7 23 25 22 50 13 8 9 16 36 53 55 59 55 53 48 45 38 50 47 40 37 31 30 33 34 37 38 36 34 30 31 31 32 32 32 32 24 18 16 13 9 10 13 14
14 18 9 12 10 10 22 26 22 20 31 49 50 55 54 58 56 61 60 50 38 48 45 42 39 38 38 38 39 38 35 33 27 25 27 25 25 24 25 22 15 15 16 15 10 10 11 12 12
4 9 18 8 6 4 14 18 26 41 36 17 24 32 49 55 56 39 30 34 49 49 44 41 40 43 44 43 41 38 34 27 26 28 24 22 22 16 16 12 11 10 10 10 13 18 18 13 16
11 6 6 2 9 10 11 15 23 11 46 7 18 20 33 33 27 28 35 48 49 45 46 43 43 49 48 45 41 35 30 26 23 22 20 18 14 13 13 10 8 7 8 11 13 19 12 12 14
4 5 8 6 10 8 5 13 13 24 17 18 28 44 37 41 37 45 51 52 50 50 49 48 52 53 50 43 36 31 26 20 18 15 16 16 17 16 15 9 4 2 6 12 12 16 15 12 13
5 8 7 7 13 15 4 14 16 12 11 18 29 56 27 46 49 55 56 56 53 54 56 54 54 52 46 38 31 25 22 18 15 13 14 18 19 18 14 6 4 6 13 15 14 16 17 18 16
Wind_Direction_500mb
214 186 154 148 70 63 265 255 267 294 272 209 27 157 176 173 172 210 161 169 176 178 180 186 190 187 186 187 189 186 178 175 171 164 168 160 150 142 142 149 153 220 248 247 233 226 237 251 260
194 163 157 142 112 114 266 238 238 241 248 225 107 107 133 188 168 152 161 174 183 185 184 189 193 193 195 198 198 199 199 194 189 186 185 179 171 167 183 107 5 247 228 233 233 240 249 261 268
178 174 174 151 171 173 232 221 171 272 288 289 132 117 160 185 163 160 167 164 175 182 193 197 201 199 201 205 206 208 208 208 206 200 200 198 199 176 279 343 330 312 289 255 249 253 255 262 271
167 195 139 164 217 225 224 303 328 299 289 268 165 131 156 157 161 155 165 172 172 182 204 208 209 205 205 209 213 216 216 216 215 215 212 212 216 212 224 309 328 317 303 286 271 266 264 268 264
176 190 193 236 239 231 266 280 291 270 238 270 235 151 137 181 174 150 161 174 193 195 206 212 214 212 215 217 220 221 221 222 221 223 222 219 220 221 223 253 309 318 304 291 286 283 270 260 266
168 147 237 236 233 249 263 269 289 288 240 229 272 70 125 178 193 167 182 196 203 217 217 220 220 223 224 223 226 226 226 227 226 227 226 223 223 225 227 236 275 305 300 295 294 301 294 277 269
166 124 222 246 269 308 231 313 250 226 284 261 130 129 259 194 189 186 194 202 212 225 230 231 225 230 232 226 228 229 231 232 231 232 232 229 227 230 232 236 254 287 292 292 298 304 298 285 275
207 124 221 241 201 264 265 277 251 27 3 26 134 158 203 206 200 203 204 216 220 224 229 235 230 237 235 232 227 231 234 235 236 236 236 234 233 234 236 238 249 276 283 280 292 302 309 297 280
195 116 217 233 170 227 314 344 281 308 307 322 340 338 270 214 206 216 211 224 227 228 235 238 238 243 241 237 235 231 234 235 237 239 240 237 236 235 237 241 248 269 274 274 271 285 312 313 296
178 186 223 199 205 107 322 333 311 333 314 301 297 301 226 210 223 239 223 228 234 237 240 243 244 243 241 240 240 235 235 237 235 239 240 238 239 237 240 241 245 261 259 262 261 271 286 305 306
206 221 228 243 223 228 262 274 271 298 297 274 286 299 291 291 286 252 246 244 251 252 254 247 244 243 244 242 243 242 237 240 237 240 242 242 241 237 238 239 243 256 253 258 263 270 272 277 285
237 218 227 252 247 240 232 246 248 248 253 274 286 290 283 290 293 291 280 280 271 255 269 263 261 247 243 239 242 246 244 244 241 240 244 242 241 239 239 240 245 253 252 255 257 261 265 269 267
244 238 232 246 258 254 264 260 259 254 257 267 272 278 280 285 283 283 289 288 295 297 297 272 273 265 253 240 240 247 249 252 255 242 245 244 245 241 240 243 246 250 252 253 255 259 264 266 262
148 227 245 248 257 265 256 265 265 267 273 263 266 271 277 277 284 291 290 293 293 297 293 281 274 267 258 258 245 247 249 252 253 245 245 246 248 243 244 247 246 249 251 255 256 258 265 274 274
260 292 281 240 215 241 283 273 253 261 267 272 275 274 281 282 283 283 290 293 295 295 294 277 270 268 268 263 242 241 248 252 252 251 246 247 250 245 247 246 246 247 251 256 253 256 263 267 275
216 191 244 254 227 221 184 261 239 264 251 260 264 272 274 278 282 290 292 290 290 285 292 282 268 272 266 247 246 243 250 252 251 252 245 243 242 241 239 238 235 240 254 259 259 260 262 272 273
235 239 228 260 203 208 185 257 248 254 258 262 267 272 274 278 280 280 284 284 286 286 287 286 273 269 255 238 242 244 250 251 249 253 240 235 231 234 233 216 222 242 258 263 260 266 270 273 272
217 229 295 182 206 225 236 256 252 245 253 262 266 271 276 280 281 283 284 288 288 287 289 287 263 259 243 242 242 241 245 248 249 250 233 232 231 234 225 211 229 242 256 263 266 266 274 278 277
339 301 15 337 227 218 225 250 257 255 254 258 260 263 265 267 275 280 286 286 284 284 282 274 247 249 240 241 237 239 242 243 243 233 225 222 228 234 211 225 234 242 263 283 276 274 277 281 277
261 275 277 281 270 272 280 273 281 267 258 258 261 260 260 271 278 280 288 289 283 290 279 255 244 251 247 237 239 239 239 235 233 221 217 221 222 221 229 238 231 245 271 279 281 281 278 276 270
235 227 254 246 310 299 304 286 272 262 255 256 255 260 263 264 272 279 285 286 293 293 262 240 245 243 236 235 234 234 230 216 201 199 209 211 213 221 219 230 234 262 273 277 287 284 277 274 265
253 230 254 261 211 259 337 289 274 270 266 260 250 258 263 269 269 272 274 281 284 280 247 243 235 242 236 233 232 229 223 204 199 204 213 208 219 207 223 237 251 272 266 280 288 273 267 259 250
250 236 251 227 241 274 254 290 278 244 260 250 248 249 253 261 267 271 272 276 290 271 243 232 236 234 230 230 223 222 216 210 201 195 198 217 211 217 225 235 250 260 273 281 268 265 263 255 241
253 224 229 225 132 250 224 203 275 238 251 248 240 251 256 265 271 269 277 280 280 262 234 226 219 213 210 206 202 202 197 195 195 194 197 201 216 226 230 238 256 270 274 264 262 260 259 251 242
177 85 254 138 190 229 199 201 238 268 276 256 255 263 271 275 281 283 280 280 277 231 203 198 195 190 183 180 175 180 189 191 190 189 195 202 216 218 229 253 267 268 248 256 254 267 261 249 241
191 164 185 182 183 226 249 233 244 231 259 260 262 269 277 282 281 281 276 261 219 187 185 182 176 171 165 166 170 175 177 172 178 193 198 204 213 230 249 264 247 231 246 249 246 251 263 251 242
226 162 216 360 240 223 232 276 281 271 269 277 271 283 278 269 276 275 239 199 177 175 175 172 165 159 159 164 169 172 176 182 189 183 194 211 237 247 249 208 215 227 244 247 237 234 246 242 247
169 205 100 138 224 238 258 253 233 251 251 279 273 252 273 251 230 204 180 167 165 167 164 160 161 159 162 165 169 171 172 175 188 201 212 217 221 192 185 190 201 229 268 270 243 240 240 225 229
283 197 210 195 210 223 290 259 205 213 271 324 300 294 277 208 193 173 166 160 160 161 159 159 161 161 162 168 172 177 176 180 181 198 203 195 168 159 154 151 162 245 276 286 250 237 232 217 220
272 246 170 197 231 251 256 265 276 295 321 303 303 307 208 186 172 164 162 158 159 161 160 160 163 162 163 166 169 173 158 155 175 172 166 169 159 162 152 137 44 329 300 292 249 240 235 230 238
Wind_Speed_850mb
13 8 12 10 6 8 8 12 8 9 2 6 9 10 25 28 12 9 41 45 39 44 52 49 41 36 30 29 27 22 20 19 18 16 15 13 10 6 5 4 2 2 4 6 7 9 10 10 11
12 13 14 5 8 4 11 10 15 7 16 7 20 12 7 5 14 22 47 43 42 44 47 46 41 37 34 31 30 26 24 23 21 19 16 12 8 5 2 1 1 1 3 5 8 9 9 11 13
15 19 10 8 8 10 10 11 5 8 30 16 12 12 12 12 21 48 46 41 37 37 31 37 41 40 39 36 35 31 29 28 26 23 19 14 9 5 1 4 6 6 5 6 8 10 12 13 14
16 9 2 6 14 11 12 3 10 8 24 19 9 11 11 22 38 32 44 34 30 30 28 39 44 46 43 39 39 37 36 34 31 28 24 18 13 9 4 4 8 10 9 8 9 12 13 17 17
25 4 3 7 11 8 13 27 37 15 7 23 12 9 7 21 32 30 25 21 21 28 33 39 47 47 44 43 44 43 43 41 37 34 30 25 21 16 10 6 7 12 14 13 13 14 15 20 25
10 7 0 12 10 7 6 27 31 17 25 20 9 5 8 34 31 24 27 20 23 23 27 32 41 45 49 51 51 49 48 47 44 42 39 34 29 23 17 11 8 12 15 16 17 18 21 24 28
9 7 9 7 6 9 5 13 8 9 17 8 7 11 4 35 34 27 26 25 26 30 37 37 39 40 51 58 57 55 55 53 51 49 47 42 37 31 24 18 13 13 15 15 16 18 22 26 28
13 6 4 9 8 10 10 10 11 9 9 36 16 8 8 38 35 34 34 27 38 45 47 47 45 47 56 63 64 61 60 59 57 56 54 50 44 38 32 25 18 16 15 15 14 11 17 24 26
15 4 9 12 15 8 17 14 28 26 36 39 7 12 22 10 41 38 41 39 46 53 57 57 58 57 62 64 69 67 64 65 62 61 60 57 55 48 40 31 23 19 17 17 13 12 15 17 17
12 11 20 14 15 4 20 20 49 22 42 38 38 30 8 13 31 40 51 49 54 59 57 62 65 67 71 70 72 75 70 72 71 70 70 68 65 54 46 36 29 23 20 22 20 18 18 15 15
14 20 30 28 37 27 25 16 48 37 36 50 31 47 40 44 34 32 40 49 59 55 55 53 57 67 73 75 76 80 78 81 79 76 77 76 71 62 56 46 35 29 25 29 24 23 24 20 18
12 27 40 34 30 17 23 24 31 51 61 73 75 66 57 64 63 53 49 45 40 59 59 55 47 54 65 78 82 84 82 84 87 83 82 82 79 70 63 52 40 36 32 33 29 26 26 26 23
29 18 27 42 48 41 42 46 46 57 61 67 76 77 74 68 61 45 52 58 60 50 54 61 60 60 62 71 76 74 82 77 75 89 84 83 84 77 66 56 48 42 38 39 32 30 29 31 29
3 22 38 46 51 40 29 44 49 55 74 68 64 65 69 63 69 73 70 71 70 78 75 68 70 67 68 67 63 57 66 73 74 89 86 80 83 76 65 59 53 45 43 39 34 33 33 33 35
27 16 21 28 12 15 17 43 51 62 77 77 66 65 77 76 67 71 78 91 94 82 81 73 67 58 67 74 54 51 54 70 77 81 86 73 73 68 63 62 52 45 41 40 38 37 37 38 39
6 8 29 34 26 17 19 63 18 27 53 71 72 73 71 82 87 89 89 93 85 85 85 68 67 70 60 63 56 51 56 64 71 80 79 61 51 46 56 53 47 39 36 41 42 41 39 41 43
9 24 30 22 11 14 25 73 26 60 55 60 60 73 82 87 86 91 95 103 97 82 77 81 78 67 60 60 54 56 64 64 72 70 65 51 43 45 53 47 41 33 35 39 41 39 41 44 46
21 28 5 8 6 17 23 59 36 39 36 49 53 62 71 87 93 106 97 88 83 78 73 77 60 58 62 58 57 64 70 66 66 62 50 42 42 44 48 34 34 36 33 34 36 40 41 43 43
12 12 4 8 14 24 34 55 47 42 54 58 71 80 88 88 95 91 102 93 88 89 82 62 52 59 67 57 63 70 68 62 58 49 42 38 36 38 33 28 38 36 29 27 31 37 43 46 40
24 21 16 12 22 10 20 35 34 27 33 50 54 58 68 69 94 75 70 74 78 59 56 55 61 59 68 59 60 65 64 58 46 43 41 41 41 30 34 30 33 31 30 33 35 39 45 45 37
14 16 18 16 18 36 24 35 30 24 30 53 59 71 69 71 76 84 77 68 73 68 54 58 54 48 57 60 63 60 45 38 41 42 42 46 33 20 22 24 26 28 36 35 37 40 39 37 31
31 7 17 8 10 18 0 32 41 35 47 40 38 65 68 83 88 83 74 75 74 68 63 56 50 46 56 56 51 52 50 50 48 39 29 27 21 21 23 23 28 33 37 36 38 30 29 27 27
14 24 22 20 16 8 9 9 48 9 34 39 40 61 83 92 93 95 91 77 61 47 51 52 47 46 45 40 37 40 42 44 37 34 28 24 23 27 31 32 33 32 34 36 29 25 22 21 24
11 8 16 18 4 11 22 18 49 18 32 24 21 44 56 58 51 50 55 56 54 42 56 49 46 37 33 30 28 31 37 42 40 34 29 29 29 32 30 33 33 35 30 22 19 18 18 20 23
9 7 2 3 7 23 25 22 50 13 8 9 16 36 53 55 59 55 53 48 45 38 50 47 40 37 31 30 33 34 37 38 36 34 30 31 31 32 32 32 32 24 18 16 13 9 10 13 14
14 18 9 12 10 10 22 26 22 20 31 49 50 55 54 58 56 61 60 50 38 48 45 42 39 38 38 38 39 38 35 33 27 25 27 25 25 24 25 22 15 15 16 15 10 10 11 12 12
4 9 18 8 6 4 14 18 26 41 36 17 24 32 49 55 56 39 30 34 49 49 44 41 40 43 44 43 41 38 34 27 26 28 24 22 22 16 16 12 11 10 10 10 13 18 18 13 16
11 6 6 2 9 10 11 15 23 11 46 7 18 20 33 33 27 28 35 48 49 45 46 43 43 49 48 45 41 35 30 26 23 22 20 18 14 13 13 10 8 7 8 11 13 19 12 12 14
4 5 8 6 10 8 5 13 13 24 17 18 28 44 37 41 37 45 51 52 50 50 49 48 52 53 50 43 36 31 26 20 18 15 16 16 17 16 15 9 4 2 6 12 12 16 15 12 13
5 8 7 7 13 15 4 14 16 12 11 18 29 56 27 46 49 55 56 56 53 54 56 54 54 52 46 38 31 25 22 18 15 13 14 18 19 18 14 6 4 6 13 15 14 16 17 18 16
Wind_Direction_850mb
214 186 154 148 70 63 265 255 267 294 272 209 27 157 176 173 172 210 161 169 176 178 180 186 190 187 186 187 189 186 178 175 171 164 168 160 150 142 142 149 153 220 248 247 233 226 237 251 260
194 163 157 142 112 114 266 238 238 241 248 225 107 107 133 188 168 152 161 174 183 185 184 189 193 193 195 198 198 199 199 194 189 186 185 179 171 167 183 107 5 247 228 233 233 240 249 261 268
178 174 174 151 171 173 232 221 171 272 288 289 132 117 160 185 163 160 167 164 175 182 193 197 201 199 201 205 206 208 208 208 206 200 200 198 199 176 279 343 330 312 289 255 249 253 255 262 271
167 195 139 164 217 225 224 303 328 299 289 268 165 131 156 157 161 155 165 172 172 182 204 208 209 205 205 209 213 216 216 216 215 215 212 212 216 212 224 309 328 317 303 286 271 266 264 268 264
176 190 193 236 239 231 266 280 291 270 238 270 235 151 137 181 174 150 161 174 193 195 206 212 214 212 215 217 220 221 221 222 221 223 222 219 220 221 223 253 309 318 304 291 286 283 270 260 266
168 147 237 236 233 249 263 269 289 288 240 229 272 70 125 178 193 167 182 196 203 217 217 220 220 223 224 223 226 226 226 227 226 227 226 223 223 225 227 236 275 305 300 295 294 301 294 277 269
166 124 222 246 269 308 231 313 250 226 284 261 130 129 259 194 189 186 194 202 212 225 230 231 225 230 232 226 228 229 231 232 231 232 232 229 227 230 232 236 254 287 292 292 298 304 298 285 275
207 124 221 241 201 264 265 277 251 27 3 26 134 158 203 206 200 203 204 216 220 224 229 235 230 237 235 232 227 231 234 235 236 236 236 234 233 234 236 238 249 276 283 280 292 302 309 297 280
195 116 217 233 170 227 314 344 281 308 307 322 340 338 270 214 206 216 211 224 227 228 235 238 238 243 241 237 235 231 234 235 237 239 240 237 236 235 237 241 248 269 274 274 271 285 312 313 296
178 186 223 199 205 107 322 333 311 333 314 301 297 301 226 210 223 239 223 228 234 237 240 243 244 243 241 240 240 235 235 237 235 239 240 238 239 237 240 241 245 261 259 262 261 271 286 305 306
206 221 228 243 223 228 262 274 271 298 297 274 286 299 291 291 286 252 246 244 251 252 254 247 244 243 244 242 243 242 237 240 237 240 242 242 241 237 238 239 243 256 253 258 263 270 272 277 285
237 218 227 252 247 240 232 246 248 248 253 274 286 290 283 290 293 291 280 280 271 255 269 263 261 247 243 239 242 246 244 244 241 240 244 242 241 239 239 240 245 253 252 255 257 261 265 269 267
244 238 232 246 258 254 264 260 259 254 257 267 272 278 280 285 283 283 289 288 295 297 297 272 273 265 253 240 240 247 249 252 255 242 245 244 245 241 240 243 246 250 252 253 255 259 264 266 262
148 227 245 248 257 265 256 265 265 267 273 263 266 271 277 277 284 291 290 293 293 297 293 281 274 267 258 258 245 247 249 252 253 245 245 246 248 243 244 247 246 249 251 255 256 258 265 274 274
260 292 281 240 215 241 283 273 253 261 267 272 275 274 281 282 283 283 290 293 295 295 294 277 270 268 268 263 242 241 248 252 252 251 246 247 250 245 247 246 246 247 251 256 253 256 263 267 275
216 191 244 254 227 221 184 261 239 264 251 260 264 272 274 278 282 290 292 290 290 285 292 282 268 272 266 247 246 243 250 252 251 252 245 243 242 241 239 238 235 240 254 259 259 260 262 272 273
235 239 228 260 203 208 185 257 248 254 258 262 267 272 274 278 280 280 284 284 286 286 287 286 273 269 255 238 242 244 250 251 249 253 240 235 231 234 233 216 222 242 258 263 260 266 270 273 272
217 229 295 182 206 225 236 256 252 245 253 262 266 271 276 280 281 283 284 288 288 287 289 287 263 259 243 242 242 241 245 248 249 250 233 232 231 234 225 211 229 242 256 263 266 266 274 278 277
339 301 15 337 227 218 225 250 257 255 254 258 260 263 265 267 275 280 286 286 284 284 282 274 247 249 240 241 237 239 242 243 243 233 225 222 228 234 211 225 234 242 263 283 276 274 277 281 277
261 275 277 281 270 272 280 273 281 267 258 258 261 260 260 271 278 280 288 289 283 290 279 255 244 251 247 237 239 239 239 235 233 221 217 221 222 221 229 238 231 245 271 279 281 281 278 276 270
235 227 254 246 310 299 304 286 272 262 255 256 255 260 263 264 272 279 285 286 293 293 262 240 245 243 236 235 234 234 230 216 201 199 209 211 213 221 219 230 234 262 273 277 287 284 277 274 265
253 230 254 261 211 259 337 289 274 270 266 260 250 258 263 269 269 272 274 281 284 280 247 243 235 242 236 233 232 229 223 204 199 204 213 208 219 207 223 237 251 272 266 280 288 273 267 259 250
250 236 251 227 241 274 254 290 278 244 260 250 248 249 253 261 267 271 272 276 290 271 243 232 236 234 230 230 223 222 216 210 201 195 198 217 211 217 225 235 250 260 273 281 268 265 263 255 241
253 224 229 225 132 250 224 203 275 238 251 248 240 251 256 265 271 269 277 280 280 262 234 226 219 213 210 206 202 202 197 195 195 194 197 201 216 226 230 238 256 270 274 264 262 260 259 251 242
177 85 254 138 190 229 199 201 238 268 276 256 255 263 271 275 281 283 280 280 277 231 203 198 195 190 183 180 175 180 189 191 190 189 195 202 216 218 229 253 267 268 248 256 254 267 261 249 241
191 164 185 182 183 226 249 233 244 231 259 260 262 269 277 282 281 281 276 261 219 187 185 182 176 171 165 166 170 175 177 172 178 193 198 204 213 230 249 264 247 231 246 249 246 251 263 251 242
226 162 216 360 240 223 232 276 281 271 269 277 271 283 278 269 276 275 239 199 177 175 175 172 165 159 159 164 169 172 176 182 189 183 194 211 237 247 249 208 215 227 244 247 237 234 246 242 247
169 205 100 138 224 238 258 253 233 251 251 279 273 252 273 251 230 204 180 167 165 167 164 160 161 159 162 165 169 171 172 175 188 201 212 217 221 192 185 190 201 229 268 270 243 240 240 225 229
283 197 210 195 210 223 290 259 205 213 271 324 300 294 277 208 193 173 166 160 160 161 159 159 161 161 162 168 172 177 176 180 181 198 203 195 168 159 154 151 162 245 276 286 250 237 232 217 220
272 246 170 197 231 251 256 265 276 295 321 303 303 307 208 186 172 164 162 158 159 161 160 160 163 162 163 166 169 173 158 155 175 172 166 169 159 162 152 137 44 329 300 292 249 240 235 230 238